TimeEDT,TemperatureF,Dew PointF,Humidity,Sea Level PressureIn,VisibilityMPH,Wind Direction,Wind SpeedMPH,Gust SpeedMPH,PrecipitationIn,Events,Conditions,WindDirDegrees,DateUTC
12:15 AM,45.5,41.2,85,30.34,10.0,Calm,Calm,-,N/A,,Clear,0,2013-05-03 04:15:00
12:35 AM,45.3,40.6,84,30.34,10.0,Calm,Calm,-,N/A,,Clear,0,2013-05-03 04:35:00
12:55 AM,44.6,40.5,85,30.33,10.0,Calm,Calm,-,N/A,,Clear,0,2013-05-03 04:55:00
1:15 AM,46.8,41.0,80,30.32,10.0,Calm,Calm,-,N/A,,Clear,0,2013-05-03 05:15:00
1:35 AM,46.8,41.5,82,30.32,7.0,Calm,Calm,-,N/A,,Clear,0,2013-05-03 05:35:00
1:55 AM,42.8,39.2,87,30.31,10.0,Calm,Calm,-,N/A,,Clear,0,2013-05-03 05:55:00
2:15 AM,43.5,39.7,87,30.30,10.0,Calm,Calm,-,N/A,,Clear,0,2013-05-03 06:15:00
2:35 AM,42.8,39.4,88,30.30,7.0,Calm,Calm,-,N/A,,Clear,0,2013-05-03 06:35:00
2:55 AM,43.3,39.4,86,30.30,7.0,Calm,Calm,-,N/A,,Clear,0,2013-05-03 06:55:00
3:15 AM,43.2,39.7,88,30.30,10.0,Calm,Calm,-,N/A,,Clear,0,2013-05-03 07:15:00
3:35 AM,43.9,40.6,88,30.30,10.0,Calm,Calm,-,N/A,,Clear,0,2013-05-03 07:35:00
3:55 AM,42.8,39.6,88,30.30,7.0,Calm,Calm,-,N/A,,Clear,0,2013-05-03 07:55:00
4:15 AM,41.2,37.8,88,30.30,10.0,Calm,Calm,-,N/A,,Clear,0,2013-05-03 08:15:00
4:35 AM,42.3,39.6,90,30.30,10.0,Calm,Calm,-,N/A,,Clear,0,2013-05-03 08:35:00
4:55 AM,40.3,37.2,89,30.30,7.0,Calm,Calm,-,N/A,,Clear,0,2013-05-03 08:55:00
5:15 AM,40.8,38.1,90,30.30,10.0,Calm,Calm,-,N/A,,Clear,0,2013-05-03 09:15:00
5:35 AM,39.9,37.0,89,30.30,10.0,Calm,Calm,-,N/A,,Clear,0,2013-05-03 09:35:00
5:55 AM,41.2,38.8,91,30.31,7.0,Calm,Calm,-,N/A,,Clear,0,2013-05-03 09:55:00
6:15 AM,41.5,39.2,91,30.31,2.0,Calm,Calm,-,N/A,,Clear,0,2013-05-03 10:15:00
6:35 AM,39.6,37.0,91,30.32,5.0,Calm,Calm,-,N/A,,Clear,0,2013-05-03 10:35:00
6:55 AM,40.8,38.5,91,30.32,7.0,Calm,Calm,-,N/A,,Clear,0,2013-05-03 10:55:00
7:15 AM,41.5,38.8,90,30.33,1.2,Calm,Calm,-,N/A,,Mist,0,2013-05-03 11:15:00
7:35 AM,43.5,40.3,88,30.34,5.0,Calm,Calm,-,N/A,,Clear,0,2013-05-03 11:35:00
7:55 AM,43.7,41.2,91,30.35,5.0,Calm,Calm,-,N/A,,Clear,0,2013-05-03 11:55:00
8:15 AM,45.9,43.3,91,30.35,5.0,Calm,Calm,-,N/A,,Clear,0,2013-05-03 12:15:00
8:35 AM,48.4,44.1,85,30.36,4.0,Calm,Calm,-,N/A,,Haze,0,2013-05-03 12:35:00
8:55 AM,50.2,45.3,83,30.37,10.0,Calm,Calm,-,N/A,,Clear,0,2013-05-03 12:55:00
9:15 AM,53.1,45.7,76,30.37,10.0,Calm,Calm,-,N/A,,Clear,0,2013-05-03 13:15:00
9:35 AM,54.5,46.2,74,30.37,10.0,NNE,4.6,-,N/A,,Mostly Cloudy,30,2013-05-03 13:35:00
9:55 AM,56.3,46.4,69,30.37,10.0,NE,4.6,-,N/A,,Overcast,40,2013-05-03 13:55:00
10:15 AM,56.3,45.9,68,30.38,10.0,East,4.6,-,N/A,,Overcast,80,2013-05-03 14:15:00
10:35 AM,57.0,46.2,67,30.38,10.0,NE,4.6,-,N/A,,Overcast,50,2013-05-03 14:35:00
10:55 AM,58.5,44.6,60,30.38,10.0,SSE,6.9,-,N/A,,Overcast,160,2013-05-03 14:55:00
11:15 AM,59.0,45.0,60,30.38,10.0,East,8.1,-,N/A,,Overcast,100,2013-05-03 15:15:00
11:35 AM,59.4,44.8,58,30.37,10.0,ENE,6.9,-,N/A,,Overcast,70,2013-05-03 15:35:00
11:55 AM,60.3,43.9,55,30.37,10.0,ESE,8.1,-,N/A,,Scattered Clouds,110,2013-05-03 15:55:00
12:15 PM,62.2,44.2,52,30.36,10.0,ESE,6.9,-,N/A,,Scattered Clouds,110,2013-05-03 16:15:00
12:35 PM,62.1,43.2,50,30.35,10.0,East,5.8,-,N/A,,Scattered Clouds,80,2013-05-03 16:35:00
12:55 PM,64.8,44.2,47,30.35,10.0,ESE,8.1,-,N/A,,Mostly Cloudy,110,2013-05-03 16:55:00
1:15 PM,64.2,44.1,48,30.35,10.0,SE,8.1,-,N/A,,Scattered Clouds,140,2013-05-03 17:15:00
1:35 PM,64.8,45.0,49,30.34,10.0,SSE,5.8,-,N/A,,Mostly Cloudy,150,2013-05-03 17:35:00
1:55 PM,63.5,44.6,50,30.34,10.0,ESE,6.9,-,N/A,,Mostly Cloudy,120,2013-05-03 17:55:00
2:15 PM,63.9,46.2,53,30.33,10.0,East,6.9,-,N/A,,Overcast,100,2013-05-03 18:15:00
2:35 PM,63.7,45.7,52,30.33,10.0,ESE,5.8,-,N/A,,Overcast,120,2013-05-03 18:35:00
2:55 PM,63.7,46.4,53,30.32,10.0,Calm,Calm,-,N/A,,Overcast,0,2013-05-03 18:55:00
3:15 PM,64.0,46.0,52,30.31,10.0,East,6.9,-,N/A,,Overcast,80,2013-05-03 19:15:00
3:35 PM,64.0,46.0,52,30.30,10.0,East,4.6,-,N/A,,Overcast,100,2013-05-03 19:35:00
3:55 PM,64.4,46.2,52,30.29,10.0,East,3.5,-,N/A,,Overcast,80,2013-05-03 19:55:00
4:15 PM,64.9,46.0,50,30.28,10.0,ESE,5.8,-,N/A,,Mostly Cloudy,110,2013-05-03 20:15:00
4:35 PM,65.7,45.0,47,30.28,10.0,SE,5.8,-,N/A,,Mostly Cloudy,140,2013-05-03 20:35:00
4:55 PM,66.0,44.6,46,30.27,10.0,ESE,4.6,-,N/A,,Overcast,120,2013-05-03 20:55:00
5:15 PM,65.3,43.9,46,30.27,10.0,East,4.6,-,N/A,,Overcast,80,2013-05-03 21:15:00
5:35 PM,65.8,43.2,44,30.27,10.0,East,8.1,-,N/A,,Mostly Cloudy,80,2013-05-03 21:35:00
5:55 PM,65.3,42.6,44,30.27,10.0,ESE,6.9,-,N/A,,Overcast,110,2013-05-03 21:55:00
6:15 PM,66.2,44.1,45,30.27,10.0,East,10.4,-,N/A,,Overcast,90,2013-05-03 22:15:00
6:35 PM,64.9,43.7,46,30.27,10.0,East,8.1,-,N/A,,Mostly Cloudy,90,2013-05-03 22:35:00
6:55 PM,64.6,43.9,47,30.26,10.0,ESE,5.8,-,N/A,,Mostly Cloudy,110,2013-05-03 22:55:00
7:15 PM,63.7,42.8,47,30.26,10.0,East,8.1,-,N/A,,Mostly Cloudy,100,2013-05-03 23:15:00
7:35 PM,63.0,42.4,47,30.27,10.0,East,9.2,-,N/A,,Scattered Clouds,100,2013-05-03 23:35:00
7:55 PM,62.2,41.2,46,30.27,10.0,East,12.7,-,N/A,,Scattered Clouds,100,2013-05-03 23:55:00
8:15 PM,60.8,41.2,48,30.28,10.0,East,8.1,-,N/A,,Clear,100,2013-05-04 00:15:00
8:35 PM,59.7,40.8,50,30.28,10.0,ESE,6.9,-,N/A,,Clear,110,2013-05-04 00:35:00
8:55 PM,58.5,41.2,53,30.29,10.0,East,8.1,-,N/A,,Clear,90,2013-05-04 00:55:00
9:15 PM,57.7,41.0,54,30.30,10.0,East,8.1,-,N/A,,Clear,100,2013-05-04 01:15:00
9:35 PM,56.7,39.7,53,30.30,10.0,East,6.9,-,N/A,,Clear,100,2013-05-04 01:35:00
9:55 PM,55.4,39.2,54,30.31,10.0,East,8.1,-,N/A,,Clear,100,2013-05-04 01:55:00
10:15 PM,54.5,38.3,54,30.32,10.0,East,8.1,-,N/A,,Clear,100,2013-05-04 02:15:00
10:35 PM,53.6,38.1,56,30.32,10.0,East,6.9,-,N/A,,Clear,90,2013-05-04 02:35:00
10:55 PM,52.3,38.3,59,30.32,10.0,East,8.1,-,N/A,,Clear,100,2013-05-04 02:55:00
11:15 PM,51.8,39.2,62,30.31,10.0,East,6.9,-,N/A,,Clear,100,2013-05-04 03:15:00
11:35 PM,50.9,39.6,65,30.32,10.0,East,6.9,-,N/A,,Clear,100,2013-05-04 03:35:00
11:55 PM,50.2,39.7,67,30.32,10.0,East,9.2,-,N/A,,Clear,100,2013-05-04 03:55:00